SKW814 KMRY-KDEN

Flight info

Callsign SKW814
Flight time 2h 4m
Altitude 33000
Route SNS PXN NTELL OAL KATTS KITTN BUMMP SSKII4
Aircraft E75L/M-SDE3GILORVW/S

Departure

Time 2026-04-21 14:12
Airport Monterey Regional Airport (KMRY)

Arrival

Time 2026-04-21 16:17
Airport Denver International Airport (KDEN)
Time Latitude Longitude Altitude Speed Heading
2026-04-21 13:49 36.58777 -121.85028 207 ft 0 kts 293°
2026-04-21 14:00 36.58774 -121.85020 207 ft 4 kts 290°
2026-04-21 14:01 36.58767 -121.84995 210 ft 4 kts 274°
2026-04-21 14:01 36.58774 -121.84965 207 ft 4 kts 239°
2026-04-21 14:01 36.58785 -121.84935 210 ft 4 kts 270°
2026-04-21 14:01 36.58784 -121.84927 215 ft 0 kts 293°
2026-04-21 14:04 36.58784 -121.84928 215 ft 1 kts 293°
2026-04-21 14:04 36.58797 -121.84966 209 ft 9 kts 293°
2026-04-21 14:05 36.58830 -121.85062 207 ft 14 kts 292°
2026-04-21 14:05 36.58868 -121.85176 209 ft 15 kts 292°
2026-04-21 14:05 36.58911 -121.85303 207 ft 16 kts 292°
2026-04-21 14:05 36.58947 -121.85426 213 ft 14 kts 281°
2026-04-21 14:06 36.58977 -121.85544 207 ft 15 kts 291°
2026-04-21 14:06 36.59035 -121.85606 210 ft 12 kts 13°
2026-04-21 14:06 36.59066 -121.85519 210 ft 12 kts 105°
2026-04-21 14:06 36.59053 -121.85471 213 ft 0 kts 114°
2026-04-21 14:12 36.59047 -121.85455 205 ft 17 kts 114°
2026-04-21 14:12 36.58900 -121.85024 209 ft 88 kts 113°
2026-04-21 14:12 36.58581 -121.84081 226 ft 144 kts 113°
2026-04-21 14:12 36.58186 -121.82923 896 ft 143 kts 112°
2026-04-21 14:13 36.57920 -121.81705 1371 ft 153 kts 99°
2026-04-21 14:13 36.58170 -121.80409 1833 ft 160 kts 60°
2026-04-21 14:13 36.58862 -121.79279 2210 ft 167 kts 52°
2026-04-21 14:13 36.59575 -121.78085 2545 ft 176 kts 57°
2026-04-21 14:14 36.60155 -121.76728 2954 ft 178 kts 67°
2026-04-21 14:14 36.60573 -121.75287 3410 ft 178 kts 72°
2026-04-21 14:14 36.61032 -121.73848 3777 ft 181 kts 66°
2026-04-21 14:14 36.61624 -121.72419 4108 ft 190 kts 63°
2026-04-21 14:15 36.62267 -121.70963 4522 ft 193 kts 62°
2026-04-21 14:15 36.62939 -121.69506 4881 ft 198 kts 61°
2026-04-21 14:15 36.63565 -121.67963 5190 ft 204 kts 69°
2026-04-21 14:15 36.64180 -121.66278 5391 ft 222 kts 68°
2026-04-21 14:16 36.64860 -121.64455 5636 ft 241 kts 68°
2026-04-21 14:16 36.65598 -121.62480 5857 ft 264 kts 68°
2026-04-21 14:16 36.66362 -121.60327 6214 ft 279 kts 75°
2026-04-21 14:16 36.66702 -121.57909 6587 ft 288 kts 91°
2026-04-21 14:17 36.66812 -121.55400 7132 ft 292 kts 91°
2026-04-21 14:17 36.66963 -121.52879 7797 ft 292 kts 91°
2026-04-21 14:17 36.67123 -121.50352 8398 ft 294 kts 92°
2026-04-21 14:17 36.67286 -121.47815 9083 ft 294 kts 94°
2026-04-21 14:18 36.67440 -121.45277 9789 ft 295 kts 94°
2026-04-21 14:18 36.67600 -121.42714 10261 ft 303 kts 94°
2026-04-21 14:18 36.67764 -121.40043 10499 ft 317 kts 94°
2026-04-21 14:18 36.67933 -121.37274 10933 ft 322 kts 94°
2026-04-21 14:19 36.68117 -121.34486 11461 ft 323 kts 94°
2026-04-21 14:19 36.68293 -121.31686 11942 ft 325 kts 94°
2026-04-21 14:19 36.68470 -121.28904 12429 ft 328 kts 94°
2026-04-21 14:19 36.68649 -121.26070 13041 ft 328 kts 94°
2026-04-21 14:20 36.68829 -121.23226 13618 ft 331 kts 93°
2026-04-21 14:20 36.69008 -121.20356 14215 ft 334 kts 93°
2026-04-21 14:20 36.69187 -121.17449 14757 ft 339 kts 94°
2026-04-21 14:20 36.69370 -121.14503 15316 ft 343 kts 94°
2026-04-21 14:21 36.69554 -121.11524 15848 ft 347 kts 94°
2026-04-21 14:21 36.69737 -121.08509 16410 ft 351 kts 95°
2026-04-21 14:21 36.69922 -121.05457 16964 ft 355 kts 95°
2026-04-21 14:21 36.70108 -121.02366 17474 ft 360 kts 95°
2026-04-21 14:22 36.70297 -120.99235 18036 ft 365 kts 95°
2026-04-21 14:22 36.70485 -120.96069 18569 ft 369 kts 96°
2026-04-21 14:22 36.70670 -120.92869 19123 ft 372 kts 95°
2026-04-21 14:22 36.70796 -120.90735 19485 ft 375 kts 95°
2026-04-21 14:23 36.71046 -120.86360 20224 ft 381 kts 96°
2026-04-21 14:23 36.71174 -120.84167 20580 ft 385 kts 96°
2026-04-21 14:23 36.71367 -120.80818 21092 ft 390 kts 96°
2026-04-21 14:23 36.71631 -120.77417 21546 ft 402 kts 90°
2026-04-21 14:24 36.72251 -120.73963 22041 ft 414 kts 84°
2026-04-21 14:24 36.73015 -120.70479 22492 ft 419 kts 84°
2026-04-21 14:24 36.73774 -120.66953 22962 ft 424 kts 85°
2026-04-21 14:24 36.74539 -120.63384 23410 ft 428 kts 85°
2026-04-21 14:25 36.75306 -120.59777 23817 ft 432 kts 85°
2026-04-21 14:25 36.76075 -120.56142 24258 ft 435 kts 85°
2026-04-21 14:25 36.76846 -120.52491 24712 ft 437 kts 85°
2026-04-21 14:25 36.77617 -120.48819 25170 ft 439 kts 85°
2026-04-21 14:26 36.78392 -120.45123 25642 ft 441 kts 85°
2026-04-21 14:26 36.79169 -120.41407 26113 ft 443 kts 85°
2026-04-21 14:26 36.79947 -120.37681 26533 ft 445 kts 85°
2026-04-21 14:26 36.80729 -120.33930 26969 ft 448 kts 84°
2026-04-21 14:27 36.81511 -120.30164 27398 ft 450 kts 84°
2026-04-21 14:27 36.82297 -120.26377 27800 ft 452 kts 84°
2026-04-21 14:27 36.83087 -120.22567 28200 ft 454 kts 84°
2026-04-21 14:27 36.83878 -120.18744 28587 ft 456 kts 84°
2026-04-21 14:28 36.84672 -120.14897 28947 ft 459 kts 84°
2026-04-21 14:28 36.85470 -120.11030 29263 ft 461 kts 84°
2026-04-21 14:28 36.86269 -120.07142 29581 ft 464 kts 84°
2026-04-21 14:28 36.87074 -120.03230 29934 ft 466 kts 84°
2026-04-21 14:29 36.87880 -119.99303 30234 ft 468 kts 84°
2026-04-21 14:29 36.88689 -119.95353 30534 ft 470 kts 84°
2026-04-21 14:29 36.89500 -119.91389 30826 ft 472 kts 83°
2026-04-21 14:29 36.90662 -119.87493 31050 ft 489 kts 67°
2026-04-21 14:30 36.92507 -119.83880 31343 ft 496 kts 60°
2026-04-21 14:30 36.94443 -119.80371 31579 ft 499 kts 61°
2026-04-21 14:30 36.96401 -119.76775 31779 ft 502 kts 61°
2026-04-21 14:30 36.98357 -119.73156 32031 ft 503 kts 61°
2026-04-21 14:31 37.00315 -119.69522 32303 ft 504 kts 61°
2026-04-21 14:31 37.02267 -119.65885 32686 ft 502 kts 61°
2026-04-21 14:31 37.04201 -119.62269 33083 ft 499 kts 61°
2026-04-21 14:32 37.08120 -119.54932 33042 ft 513 kts 61°
2026-04-21 14:32 37.12107 -119.47457 33019 ft 518 kts 61°
2026-04-21 14:33 37.16114 -119.39926 32964 ft 520 kts 61°
2026-04-21 14:33 37.20118 -119.32374 32945 ft 520 kts 61°
2026-04-21 14:34 37.24124 -119.24807 32873 ft 521 kts 61°
2026-04-21 14:34 37.28098 -119.17287 32933 ft 516 kts 61°
2026-04-21 14:35 37.32054 -119.09777 32905 ft 516 kts 61°
2026-04-21 14:35 37.36009 -119.02250 32916 ft 516 kts 61°
2026-04-21 14:36 37.39951 -118.94735 32886 ft 510 kts 61°
2026-04-21 14:36 37.43822 -118.87333 32938 ft 507 kts 61°
2026-04-21 14:37 37.47656 -118.79992 32934 ft 506 kts 61°
2026-04-21 14:37 37.51558 -118.72509 32933 ft 507 kts 61°
2026-04-21 14:38 37.55413 -118.65093 32896 ft 505 kts 61°
2026-04-21 14:38 37.59282 -118.57642 32871 ft 510 kts 61°
2026-04-21 14:39 37.63167 -118.50153 32837 ft 510 kts 61°
2026-04-21 14:39 37.67024 -118.42696 32790 ft 511 kts 61°
2026-04-21 14:40 37.70905 -118.35172 32793 ft 509 kts 61°
2026-04-21 14:40 37.74759 -118.27682 32757 ft 508 kts 62°
2026-04-21 14:41 37.78612 -118.20198 32764 ft 509 kts 61°
2026-04-21 14:41 37.82460 -118.12706 32772 ft 505 kts 62°
2026-04-21 14:42 37.86275 -118.05237 32779 ft 504 kts 61°
2026-04-21 14:42 37.90077 -117.97792 32781 ft 504 kts 62°
2026-04-21 14:43 37.93870 -117.90336 32790 ft 504 kts 61°
2026-04-21 14:43 37.97663 -117.82878 32791 ft 503 kts 62°
2026-04-21 14:44 38.01027 -117.75187 32805 ft 492 kts 77°
2026-04-21 14:44 38.02925 -117.66866 32800 ft 492 kts 79°
2026-04-21 14:45 38.04831 -117.58547 32810 ft 491 kts 79°
2026-04-21 14:45 38.06749 -117.50234 32784 ft 491 kts 79°
2026-04-21 14:46 38.08657 -117.41985 32823 ft 490 kts 79°
2026-04-21 14:46 38.10576 -117.33684 32836 ft 490 kts 79°
2026-04-21 14:47 38.12492 -117.25383 32839 ft 490 kts 79°
2026-04-21 14:47 38.14402 -117.17075 32966 ft 490 kts 79°
2026-04-21 14:48 38.16310 -117.08749 32989 ft 491 kts 79°
2026-04-21 14:48 38.18218 -117.00406 32968 ft 492 kts 79°
2026-04-21 14:49 38.20117 -116.92062 32939 ft 491 kts 79°
2026-04-21 14:49 38.22009 -116.83720 32934 ft 490 kts 79°
2026-04-21 14:50 38.23576 -116.76791 32888 ft 491 kts 79°
2026-04-21 14:50 38.25780 -116.67043 32936 ft 490 kts 79°
2026-04-21 14:50 38.26756 -116.62884 33127 ft 490 kts 78°
2026-04-21 14:51 38.27784 -116.58752 33453 ft 489 kts 77°
2026-04-21 14:51 38.28879 -116.54664 33768 ft 488 kts 75°
2026-04-21 14:51 38.30059 -116.50616 33980 ft 489 kts 73°
2026-04-21 14:52 38.32747 -116.42612 33872 ft 494 kts 69°
2026-04-21 14:52 38.34286 -116.38671 33376 ft 499 kts 66°
2026-04-21 14:52 38.35739 -116.34652 32359 ft 498 kts 79°
2026-04-21 14:52 38.36047 -116.30448 32389 ft 458 kts 104°
2026-04-21 14:53 38.35246 -116.26752 33677 ft 417 kts 117°
2026-04-21 14:53 38.34242 -116.23345 33816 ft 422 kts 116°
2026-04-21 14:53 38.33283 -116.19703 32769 ft 446 kts 112°
2026-04-21 14:53 38.32618 -116.15790 32330 ft 447 kts 104°
2026-04-21 14:54 38.32333 -116.11853 32591 ft 450 kts 99°
2026-04-21 14:54 38.32189 -116.07868 32795 ft 452 kts 98°
2026-04-21 14:54 38.32091 -116.03834 32877 ft 458 kts 97°
2026-04-21 14:55 38.32000 -115.95626 32903 ft 469 kts 96°
2026-04-21 14:55 38.32021 -115.87282 32891 ft 473 kts 95°
2026-04-21 14:56 38.32094 -115.78890 32851 ft 474 kts 94°
2026-04-21 14:56 38.32190 -115.70491 32856 ft 474 kts 94°
2026-04-21 14:57 38.32288 -115.62093 32866 ft 474 kts 94°
2026-04-21 14:57 38.32385 -115.53673 32851 ft 476 kts 94°
2026-04-21 14:58 38.32478 -115.45248 32866 ft 475 kts 94°
2026-04-21 14:58 38.32565 -115.36829 32866 ft 476 kts 94°
2026-04-21 14:59 38.32648 -115.28408 32861 ft 476 kts 94°
2026-04-21 14:59 38.32724 -115.19990 32870 ft 475 kts 94°
2026-04-21 15:00 38.32796 -115.11576 32883 ft 475 kts 94°
2026-04-21 15:00 38.32864 -115.03215 32877 ft 475 kts 94°
2026-04-21 15:01 38.32924 -114.94801 32871 ft 475 kts 95°
2026-04-21 15:01 38.32803 -114.86410 32883 ft 474 kts 95°
2026-04-21 15:02 38.32676 -114.78011 32880 ft 474 kts 95°
2026-04-21 15:02 38.32550 -114.69621 32887 ft 474 kts 95°
2026-04-21 15:03 38.32422 -114.61227 32893 ft 474 kts 95°
2026-04-21 15:03 38.32289 -114.52837 32894 ft 474 kts 96°
2026-04-21 15:04 38.32150 -114.44448 32900 ft 474 kts 96°
2026-04-21 15:04 38.32007 -114.36061 32917 ft 474 kts 96°
2026-04-21 15:05 38.31857 -114.27663 32904 ft 474 kts 96°
2026-04-21 15:05 38.31624 -114.15075 32916 ft 473 kts 96°
2026-04-21 15:06 38.31459 -114.06681 32907 ft 475 kts 96°
2026-04-21 15:06 38.31288 -113.98276 32934 ft 475 kts 95°
2026-04-21 15:07 38.31112 -113.89870 32931 ft 475 kts 95°
2026-04-21 15:07 38.30931 -113.81455 32921 ft 475 kts 95°
2026-04-21 15:08 38.30752 -113.73050 32929 ft 475 kts 96°
2026-04-21 15:08 38.30563 -113.64623 32924 ft 476 kts 96°
2026-04-21 15:09 38.30366 -113.56201 32933 ft 476 kts 96°
2026-04-21 15:09 38.30169 -113.47774 32939 ft 476 kts 96°
2026-04-21 15:10 38.29966 -113.39360 32972 ft 476 kts 96°
2026-04-21 15:10 38.29760 -113.30997 32991 ft 476 kts 96°
2026-04-21 15:11 38.29544 -113.22578 33016 ft 476 kts 96°
2026-04-21 15:11 38.29322 -113.14168 33046 ft 476 kts 96°
2026-04-21 15:12 38.29094 -113.05758 33050 ft 475 kts 96°
2026-04-21 15:12 38.28858 -112.97363 33061 ft 475 kts 96°
2026-04-21 15:13 38.28657 -112.90385 33049 ft 475 kts 96°
2026-04-21 15:13 38.28413 -112.81987 33028 ft 475 kts 96°
2026-04-21 15:14 38.28161 -112.73594 33009 ft 475 kts 96°
2026-04-21 15:14 38.27900 -112.65201 33001 ft 474 kts 96°
2026-04-21 15:15 38.27630 -112.56809 32993 ft 475 kts 96°
2026-04-21 15:15 38.27366 -112.48413 32996 ft 475 kts 96°
2026-04-21 15:16 38.27097 -112.40021 32997 ft 474 kts 96°
2026-04-21 15:16 38.26814 -112.31640 33024 ft 474 kts 96°
2026-04-21 15:17 38.26528 -112.23259 33013 ft 474 kts 96°
2026-04-21 15:17 38.26236 -112.14879 33023 ft 474 kts 96°
2026-04-21 15:18 38.25927 -112.06508 33022 ft 474 kts 96°
2026-04-21 15:18 38.25617 -111.98139 33029 ft 474 kts 96°
2026-04-21 15:19 38.25319 -111.89765 33033 ft 474 kts 96°
2026-04-21 15:19 38.25014 -111.81393 33035 ft 474 kts 96°
2026-04-21 15:20 38.24694 -111.73020 33026 ft 474 kts 96°
2026-04-21 15:20 38.24382 -111.64648 33032 ft 474 kts 96°
2026-04-21 15:21 38.24048 -111.56277 33033 ft 474 kts 96°
2026-04-21 15:21 38.23718 -111.47908 33025 ft 474 kts 96°
2026-04-21 15:22 38.23375 -111.39566 33012 ft 471 kts 96°
2026-04-21 15:22 38.23023 -111.31239 33007 ft 472 kts 96°
2026-04-21 15:23 38.22672 -111.22916 32990 ft 471 kts 96°
2026-04-21 15:23 38.22321 -111.14597 32991 ft 470 kts 96°
2026-04-21 15:24 38.21964 -111.06305 32991 ft 474 kts 96°
2026-04-21 15:24 38.21572 -110.97941 33017 ft 474 kts 96°
2026-04-21 15:25 38.21188 -110.89578 33036 ft 473 kts 96°
2026-04-21 15:25 38.20802 -110.81220 33053 ft 473 kts 96°
2026-04-21 15:26 38.20414 -110.72868 33065 ft 473 kts 96°
2026-04-21 15:26 38.19999 -110.64522 33056 ft 473 kts 97°
2026-04-21 15:27 38.19585 -110.56176 32970 ft 473 kts 96°
2026-04-21 15:27 38.19189 -110.47824 32971 ft 473 kts 96°
2026-04-21 15:28 38.18772 -110.39507 32964 ft 470 kts 96°
2026-04-21 15:28 38.18369 -110.31204 32954 ft 471 kts 96°
2026-04-21 15:29 38.17946 -110.22908 32946 ft 471 kts 97°
2026-04-21 15:29 38.17518 -110.14610 32955 ft 470 kts 97°
2026-04-21 15:30 38.17084 -110.06392 32970 ft 469 kts 97°
2026-04-21 15:30 38.16643 -109.98131 32967 ft 469 kts 97°
2026-04-21 15:31 38.16179 -109.89865 32974 ft 469 kts 97°
2026-04-21 15:31 38.15717 -109.81599 32970 ft 469 kts 97°
2026-04-21 15:32 38.15252 -109.73333 32993 ft 469 kts 97°
2026-04-21 15:32 38.14787 -109.65057 33000 ft 469 kts 97°
2026-04-21 15:33 38.14332 -109.56786 33004 ft 470 kts 97°
2026-04-21 15:33 38.13867 -109.48519 33018 ft 468 kts 97°
2026-04-21 15:34 38.13376 -109.40276 33010 ft 468 kts 97°
2026-04-21 15:34 38.12878 -109.32037 33032 ft 468 kts 97°
2026-04-21 15:35 38.12390 -109.23793 33044 ft 468 kts 97°
2026-04-21 15:35 38.11888 -109.15551 33047 ft 468 kts 97°
2026-04-21 15:36 38.11373 -109.07318 33047 ft 468 kts 96°
2026-04-21 15:36 38.10864 -108.99084 33054 ft 468 kts 96°
2026-04-21 15:37 38.11349 -108.90882 33068 ft 473 kts 71°
2026-04-21 15:37 38.14124 -108.83271 33049 ft 476 kts 65°
2026-04-21 15:38 38.17035 -108.75733 33048 ft 475 kts 65°
2026-04-21 15:38 38.19966 -108.68217 33050 ft 475 kts 64°
2026-04-21 15:39 38.22906 -108.60701 33055 ft 475 kts 64°
2026-04-21 15:39 38.25848 -108.53185 33049 ft 475 kts 64°
2026-04-21 15:40 38.28787 -108.45666 33045 ft 474 kts 64°
2026-04-21 15:40 38.31724 -108.38142 33040 ft 475 kts 64°
2026-04-21 15:41 38.34641 -108.30655 33044 ft 475 kts 64°
2026-04-21 15:41 38.37574 -108.23105 33080 ft 476 kts 64°
2026-04-21 15:42 38.40507 -108.15543 33114 ft 476 kts 64°
2026-04-21 15:42 38.43432 -108.07978 33163 ft 476 kts 64°
2026-04-21 15:43 38.46355 -108.00402 33207 ft 476 kts 64°
2026-04-21 15:43 38.49231 -107.92798 33212 ft 476 kts 65°
2026-04-21 15:44 38.52102 -107.85184 33213 ft 476 kts 65°
2026-04-21 15:44 38.54970 -107.77565 33033 ft 476 kts 65°
2026-04-21 15:45 38.57832 -107.69946 33057 ft 475 kts 65°
2026-04-21 15:45 38.60685 -107.62333 33036 ft 475 kts 65°
2026-04-21 15:46 38.63535 -107.54710 33065 ft 475 kts 65°
2026-04-21 15:46 38.66382 -107.47087 33064 ft 474 kts 65°
2026-04-21 15:47 38.69267 -107.39492 33091 ft 474 kts 65°
2026-04-21 15:47 38.72122 -107.31948 33127 ft 470 kts 65°
2026-04-21 15:48 38.74968 -107.24405 33104 ft 471 kts 65°
2026-04-21 15:48 38.77814 -107.16844 33127 ft 471 kts 65°
2026-04-21 15:49 38.80652 -107.09278 33122 ft 471 kts 65°
2026-04-21 15:49 38.83484 -107.01714 33140 ft 469 kts 65°
2026-04-21 15:50 38.86296 -106.94182 33144 ft 468 kts 65°
2026-04-21 15:50 38.89089 -106.86686 32702 ft 457 kts 65°
2026-04-21 15:51 38.90434 -106.83068 32340 ft 444 kts 65°
2026-04-21 15:51 38.91754 -106.79509 31689 ft 439 kts 65°
2026-04-21 15:51 38.93056 -106.76000 31106 ft 433 kts 65°
2026-04-21 15:51 38.94340 -106.72532 30523 ft 427 kts 64°
2026-04-21 15:52 38.95592 -106.69149 29929 ft 422 kts 64°
2026-04-21 15:52 38.96843 -106.65765 29415 ft 417 kts 64°
2026-04-21 15:52 38.97682 -106.63493 29023 ft 417 kts 64°
2026-04-21 15:52 38.99333 -106.59018 28394 ft 420 kts 64°
2026-04-21 15:53 39.01822 -106.52234 28304 ft 424 kts 64°
2026-04-21 15:53 39.04334 -106.45362 28260 ft 426 kts 64°
2026-04-21 15:54 39.06852 -106.38463 28321 ft 426 kts 64°
2026-04-21 15:54 39.09372 -106.31543 28356 ft 426 kts 64°
2026-04-21 15:55 39.11886 -106.24621 28372 ft 428 kts 64°
2026-04-21 15:55 39.14401 -106.17686 28317 ft 428 kts 64°
2026-04-21 15:56 39.15659 -106.14206 28013 ft 428 kts 65°
2026-04-21 15:56 39.16904 -106.10741 27759 ft 426 kts 65°
2026-04-21 15:56 39.18152 -106.07275 27226 ft 425 kts 65°
2026-04-21 15:56 39.19387 -106.03837 26755 ft 421 kts 65°
2026-04-21 15:57 39.20609 -106.00432 26302 ft 416 kts 65°
2026-04-21 15:57 39.21816 -105.97059 25851 ft 413 kts 65°
2026-04-21 15:57 39.23013 -105.93716 25339 ft 408 kts 65°
2026-04-21 15:57 39.24199 -105.90402 24919 ft 406 kts 65°
2026-04-21 15:58 39.25384 -105.87114 24517 ft 403 kts 65°
2026-04-21 15:58 39.26561 -105.83853 24118 ft 399 kts 65°
2026-04-21 15:58 39.27728 -105.80613 23721 ft 397 kts 65°
2026-04-21 15:58 39.28884 -105.77399 23283 ft 393 kts 65°
2026-04-21 15:59 39.29643 -105.75288 23052 ft 391 kts 65°
2026-04-21 15:59 39.31168 -105.71039 22506 ft 389 kts 65°
2026-04-21 15:59 39.32302 -105.67878 22125 ft 385 kts 65°
2026-04-21 15:59 39.33427 -105.64764 21745 ft 381 kts 65°
2026-04-21 16:00 39.34176 -105.62721 21480 ft 379 kts 65°
2026-04-21 16:00 39.35302 -105.59648 21112 ft 378 kts 65°
2026-04-21 16:00 39.36782 -105.55593 20616 ft 375 kts 65°
2026-04-21 16:00 39.37892 -105.52550 20245 ft 373 kts 65°
2026-04-21 16:01 39.38993 -105.49522 19854 ft 371 kts 65°
2026-04-21 16:01 39.40087 -105.46512 19490 ft 366 kts 65°
2026-04-21 16:01 39.41157 -105.43566 19147 ft 357 kts 65°
2026-04-21 16:01 39.41945 -105.41680 18968 ft 349 kts 58°
2026-04-21 16:02 39.43297 -105.39116 18710 ft 342 kts 54°
2026-04-21 16:02 39.44661 -105.36627 18516 ft 337 kts 55°
2026-04-21 16:02 39.46010 -105.34151 18291 ft 337 kts 54°
2026-04-21 16:02 39.47364 -105.31667 18071 ft 338 kts 54°
2026-04-21 16:03 39.48719 -105.29177 17691 ft 341 kts 55°
2026-04-21 16:03 39.50070 -105.26689 17509 ft 334 kts 54°
2026-04-21 16:03 39.51403 -105.24235 17284 ft 334 kts 55°
2026-04-21 16:03 39.52733 -105.21776 17098 ft 332 kts 55°
2026-04-21 16:04 39.54058 -105.19324 16887 ft 331 kts 55°
2026-04-21 16:04 39.55361 -105.16911 16718 ft 331 kts 55°
2026-04-21 16:04 39.56681 -105.14467 16548 ft 330 kts 55°
2026-04-21 16:04 39.57994 -105.12024 16426 ft 330 kts 55°
2026-04-21 16:05 39.59304 -105.09591 16277 ft 329 kts 55°
2026-04-21 16:05 39.60611 -105.07161 16138 ft 329 kts 55°
2026-04-21 16:05 39.61917 -105.04732 15998 ft 328 kts 55°
2026-04-21 16:05 39.63223 -105.02305 15851 ft 327 kts 55°
2026-04-21 16:06 39.64521 -104.99885 15803 ft 327 kts 55°
2026-04-21 16:06 39.65816 -104.97470 15655 ft 325 kts 55°
2026-04-21 16:06 39.67108 -104.95058 15510 ft 325 kts 55°
2026-04-21 16:06 39.68397 -104.92652 15360 ft 324 kts 55°
2026-04-21 16:07 39.69683 -104.90247 15199 ft 325 kts 54°
2026-04-21 16:07 39.70964 -104.87852 15033 ft 320 kts 54°
2026-04-21 16:07 39.72306 -104.85567 14708 ft 317 kts 42°
2026-04-21 16:07 39.74179 -104.84195 14428 ft 308 kts 12°
2026-04-21 16:08 39.78380 -104.84026 13632 ft 305 kts 358°
2026-04-21 16:08 39.80490 -104.84028 13211 ft 302 kts 359°
2026-04-21 16:08 39.82586 -104.84005 12792 ft 300 kts 359°
2026-04-21 16:09 39.84659 -104.83962 12404 ft 297 kts 359°
2026-04-21 16:09 39.86716 -104.83904 12018 ft 294 kts
2026-04-21 16:09 39.88751 -104.83803 11628 ft 292 kts
2026-04-21 16:09 39.90773 -104.83703 11248 ft 290 kts
2026-04-21 16:10 39.92771 -104.83611 10953 ft 285 kts
2026-04-21 16:10 39.94738 -104.83518 10617 ft 282 kts
2026-04-21 16:10 39.96683 -104.83432 10334 ft 277 kts
2026-04-21 16:10 39.98584 -104.83342 10127 ft 269 kts
2026-04-21 16:11 40.00421 -104.83253 10007 ft 259 kts
2026-04-21 16:11 40.02213 -104.83084 9630 ft 260 kts
2026-04-21 16:11 40.03920 -104.82202 9214 ft 268 kts 32°
2026-04-21 16:11 40.05272 -104.80546 8914 ft 268 kts 52°
2026-04-21 16:12 40.06124 -104.78418 8683 ft 264 kts 72°
2026-04-21 16:12 40.06249 -104.76047 8303 ft 267 kts 100°
2026-04-21 16:12 40.05538 -104.73763 7793 ft 273 kts 118°
2026-04-21 16:12 40.04688 -104.71652 7877 ft 254 kts 118°
2026-04-21 16:13 40.03843 -104.69679 7772 ft 245 kts 125°
2026-04-21 16:13 40.02670 -104.68179 7723 ft 230 kts 153°
2026-04-21 16:13 40.01211 -104.67715 7549 ft 216 kts 185°
2026-04-21 16:13 39.99773 -104.68058 7188 ft 204 kts 196°
2026-04-21 16:14 39.98441 -104.68471 6867 ft 191 kts 193°
2026-04-21 16:14 39.97172 -104.68693 6587 ft 176 kts 185°
2026-04-21 16:14 39.96017 -104.68657 6438 ft 159 kts 178°
2026-04-21 16:14 39.94939 -104.68601 6264 ft 151 kts 182°
2026-04-21 16:15 39.93911 -104.68634 6117 ft 147 kts 184°
2026-04-21 16:15 39.92884 -104.68639 5978 ft 147 kts 182°
2026-04-21 16:15 39.91873 -104.68644 5766 ft 144 kts 184°
2026-04-21 16:15 39.90876 -104.68670 5562 ft 142 kts 182°
2026-04-21 16:16 39.89904 -104.68675 5421 ft 138 kts 182°
2026-04-21 16:16 39.88964 -104.68684 5365 ft 124 kts 183°
2026-04-21 16:16 39.88204 -104.68700 5359 ft 92 kts 181°
2026-04-21 16:16 39.87679 -104.68702 5363 ft 59 kts 180°
2026-04-21 16:17 39.87436 -104.68702 5358 ft 22 kts 165°
2026-04-21 16:17 39.87290 -104.68624 5354 ft 23 kts 153°
2026-04-21 16:17 39.87154 -104.68523 5356 ft 21 kts 154°
2026-04-21 16:17 39.87010 -104.68503 5357 ft 21 kts 182°
2026-04-21 16:18 39.86867 -104.68502 5359 ft 20 kts 180°
2026-04-21 16:18 39.86737 -104.68503 5363 ft 18 kts 181°
2026-04-21 16:18 39.86616 -104.68508 5364 ft 18 kts 182°
2026-04-21 16:18 39.86491 -104.68510 5364 ft 18 kts 180°
2026-04-21 16:19 39.86369 -104.68508 5366 ft 17 kts 178°
2026-04-21 16:19 39.86243 -104.68504 5363 ft 19 kts 180°
2026-04-21 16:19 39.86103 -104.68507 5362 ft 20 kts 182°
2026-04-21 16:19 39.86023 -104.68481 5362 ft 8 kts 92°
2026-04-21 16:20 39.86030 -104.68399 5365 ft 10 kts 83°
2026-04-21 16:20 39.86033 -104.68331 5371 ft 6 kts 90°
2026-04-21 16:20 39.86033 -104.68306 5372 ft 0 kts 90°
2026-04-21 16:20 39.86033 -104.68301 5375 ft 3 kts 90°
2026-04-21 16:21 39.86033 -104.68239 5381 ft 11 kts 88°
2026-04-21 16:21 39.86064 -104.68122 5384 ft 15 kts 75°
2026-04-21 16:21 39.86068 -104.67988 5384 ft 15 kts 93°
2026-04-21 16:21 39.86067 -104.67845 5384 ft 16 kts 89°
2026-04-21 16:22 39.86068 -104.67694 5384 ft 17 kts 90°
2026-04-21 16:22 39.86068 -104.67537 5384 ft 17 kts 90°
2026-04-21 16:22 39.86064 -104.67376 5384 ft 18 kts 91°
2026-04-21 16:22 39.86062 -104.67206 5384 ft 19 kts 91°
2026-04-21 16:23 39.86065 -104.67044 5382 ft 18 kts 88°
2026-04-21 16:23 39.86068 -104.66894 5384 ft 16 kts 89°
2026-04-21 16:23 39.86064 -104.66744 5382 ft 17 kts 95°
2026-04-21 16:23 39.86044 -104.66626 5382 ft 11 kts 139°
2026-04-21 16:24 39.85977 -104.66614 5384 ft 9 kts 181°
2026-04-21 16:24 39.85947 -104.66613 5380 ft 2 kts 179°
2026-04-21 16:24 39.85943 -104.66613 5384 ft 0 kts 179°